Regional Weather Roundup
Issued by NWS

Home | Current Version | Previous Version | Graphics & Text | Print | Product List | Glossary On
Versions: 1 2 3 4 5 6 7 8 9 10 11 12 13 14 15 16 17 18 19 20 21 22 23 24 25 26 27 28 29 30 31 32 33 34 35 36 37 38 39 40 41 42 43 44 45 46 47 48 49 50
494
ASUS43 KMKX 261500
RWRWI

WISCONSIN REGIONAL WEATHER ROUNDUP
NATIONAL WEATHER SERVICE MILWAUKEE/SULLIVAN WI
1000 AM CDT TUE JUL 26 2016

NOTE: "FAIR" INDICATES FEW OR NO CLOUDS BELOW 12,000 FEET WITH NO
SIGNIFICANT WEATHER AND/OR OBSTRUCTIONS TO VISIBILITY.

WIZ001-002-006>008-014>016-023>028-261600-
NORTHWEST WISCONSIN

CITY           SKY/WX    TMP DP  RH WIND       PRES   REMARKS
SUPERIOR ARPT  SUNNY     78  68  71 W9        29.97F HX  80
ASHLAND        SUNNY     82  68  62 SW12      29.98F HX  85
HAYWARD        SUNNY     78  66  66 SW10      30.03F HX  80
SIREN          PTSUNNY   79  66  65 SW9       30.03S HX  81
CUMBERLAND     MOSUNNY   75  64  69 SW7       30.06S
RICE LAKE      MOSUNNY   76  67  75 SW3       30.07S
CHETEK         PTSUNNY   77  67  72 CALM      30.06S
LADYSMITH      CLOUDY    76  67  71 SW7       30.08S
EAU CLAIRE     NOT AVBL
MENOMONIE      SUNNY     80  69  68 SW5       30.06S HX  83
NEW RICHMOND   SUNNY     80  66  62 SW7       30.06S HX  82
OSCEOLA        SUNNY     80  67  65 SW8       30.07S HX  83
$$

WIZ003>005-009-010-017-018-261600-
NORTH CENTRAL WISCONSIN

CITY           SKY/WX    TMP DP  RH WIND       PRES   REMARKS
MANITOWISH WTR PTSUNNY   75  69  80 SW6       30.06F
ARBOR VITAE    MOSUNNY   77  67  72 W9        30.07S
WOODRUFF       MOSUNNY   77  67  72 W9        30.07S
RHINELANDER    SUNNY     80  65  59 W10       30.08S HX  82
EAGLE RIVER    SUNNY     76  65  68 W3        30.06S
LAND O LAKES   MOSUNNY   77  65  66 W7        30.06F
PHILLIPS       PTSUNNY   76  67  74 SW5       30.06S
TOMAHAWK       PTSUNNY   76  65  67 CALM      30.07F
MEDFORD        SUNNY     76  67  74 W8        30.08S
MERRILL        SUNNY     78  67  69 W6        30.08S HX  80
$$

WIZ029-030-035-036-043>047-261600-
CENTRAL WISCONSIN

CITY           SKY/WX    TMP DP  RH WIND       PRES   REMARKS
WAUSAU         SUNNY     80  64  58 NW8       30.06S HX  82
MOSINEE        SUNNY     81  64  57 W5        30.08F HX  82
MARSHFIELD     SUNNY     82  65  56 W7        30.07F HX  84
STEVENS POINT  SUNNY     77  64  63 CALM      30.08F
WAUPACA        SUNNY     82  66  58 S3        30.07F HX  83
WAUTOMA        SUNNY     80  66  62 W6        30.07F HX  82
WISC RAPIDS    SUNNY     82  65  56 S9        30.08F HX  84
CAMP DOUGLAS   NOT AVBL
$$

WIZ011>013-019>022-031-037>040-048>050-261600-
NORTHEAST WISCONSIN

CITY           SKY/WX    TMP DP  RH WIND       PRES   REMARKS
ANTIGO         SUNNY     77  66  68 CALM      30.08F
SHAWANO        SUNNY     80  67  64 W7        30.05F HX  83
OCONTO         SUNNY     78  67  69 W7        30.03F HX  80
STURGEON BAY   SUNNY     79  66  64 W7        30.04F HX  81
GREEN BAY      SUNNY     79  70  74 W5        30.05F HX  82
MANITOWOC      NOT AVBL
APPLETON       SUNNY     75  64  69 CALM      30.05F
CLINTONVILLE   SUNNY     79  63  57 W3        30.05F HX  80
OSHKOSH        SUNNY     79  65  62 NW5       30.06F HX  81
$$

WIZ032>034-041-042-053>061-261600-
SOUTHWEST WISCONSIN

CITY           SKY/WX    TMP DP  RH WIND       PRES   REMARKS
LA CROSSE      SUNNY     79  68  69 CALM      30.07F HX  81
SPARTA         SUNNY     75  66  73 CALM      30.09S
VIROQUA        SUNNY     78  66  66 CALM      30.11R
BOSCOBEL       SUNNY     79  68  69 CALM      30.09S HX  81
PRAIRIE DU CHI SUNNY     74  69  87 CALM      30.09R
PLATTEVILLE    SUNNY     78  69  73 E3        30.09S HX  80
$$

WIZ056-057-062-063-064-067-068-261600-
SOUTH CENTRAL WISCONSIN

CITY           SKY/WX    TMP DP  RH WIND       PRES   REMARKS
REEDSBURG      SUNNY     77  66  69 CALM      30.09S
BARABOO/DELLS  SUNNY     77  64  63 CALM      30.09S
LONE ROCK      NOT AVBL
MINERAL POINT  SUNNY     79  64  61 NE3       30.09S HX  81
MADISON        MOSUNNY   81  66  60 CALM      30.08S HX  83
MIDDLETON      SUNNY     80  65  60 CALM      30.09S HX  82
WATERTOWN      SUNNY     77  66  68 NE5       30.08S
MONROE         SUNNY     77  63  61 N5        30.09S
JANESVILLE     MOSUNNY   82  63  51 E7        30.07S HX  83
$$

WIZ051-052-058>065-066-070>072-261600-
SOUTHEAST WISCONSIN

CITY           SKY/WX    TMP DP  RH WIND       PRES   REMARKS
MILWAUKEE      MOSUNNY   83  61  47 NE7       30.07S HX  83
WAUKESHA       SUNNY     79  63  57 NW3       30.09F HX  80
MILWAUKEE/TIMM SUNNY     81  55  41 CALM      30.08S HX  80
RACINE         SUNNY     81  62  52 NE6       30.09R HX  82
BURLINGTON     SUNNY     79  65  62 CALM      30.08S HX  81
KENOSHA        SUNNY     82  62  50 E3        30.08R HX  83
FOND DU LAC    SUNNY     80  65  59 CALM      30.07F HX  82
SHEBOYGAN      SUNNY     81  63  54 VRB3      30.06F HX  82
WEST BEND      SUNNY     79  63  57 N3        30.08S HX  80
JUNEAU         SUNNY     76  66  69 CALM      30.09S
$$

LSZ147-162-261600-
LAKE SUPERIOR

STATION/POSITION TIME  TEMP    WIND        PRES    WAVE
                       AIR SEA DIR/SP/G            HT/PER
                 (UTC) (F)     (DEG/KT/KT) (MB)    (FT/S)
W MID LAKE BUOY  1350   63 60  160/  4/  4 1014.1F   1
DEVILS ISLAND    1400   73     180/  9/ 10 1014.5F
SAXON HARBOR     1400   76     150/  2/  4 1015.6
$$

LMZ867-665-643>646-261600-
LAKE MICHIGAN

STATION/POSITION TIME  TEMP    WIND        PRES    WAVE
                       AIR SEA DIR/SP/G            HT/PER
                 (UTC) (F)     (DEG/KT/KT) (MB)    (FT/S)
CHAMBERS ISLAND  1400   74     210/  4/  7 1016.9S
S GREEN BAY BUOY 1400   72 73  220/  6/  8   N/A
N MID LAKE BUOY  1350   70 70  220/  6/  6 1016.1F   1
NORTHPORT PIER   1400   77     240/  4/  7 1016.6F
SISTER BAY       1421   81     290/  8/  9   N/A
ALGOMA LAKESHORE 1313             CALM       N/A
KEWAUNEE LAKESHO 1400   77     140/  3/  4 1017.1F
SHEBOYGAN LAKESH 1400   76     360/  4/  4 1018.1S
PORT WASHINGTON  1400   79      CALM  /  3 1018.6
ATWATER BUOY     1400   67 56  150/  2/  2 1019.8S
MILWAUKEE LAKESH 1410   73      70/  4/  4   N/A
S MID LAKE BUOY  1350   73 73  320/  4/  6 1017.3S   0
KENOSHA   LAKESH 1400   74      20/  3/  3 1017.6F
$$

TC  - TEMPERATURE IN CELSIUS
VSB - VISIBILITY IN STATUTE MILES
WCI - WIND CHILL INDEX
HX  - HEAT INDEX





USA.gov is the U.S. government's official web portal to all federal, state and local government web resources and services.